Location: Cserh�td?l?
(46.0757°N, 18.7349°E)
Time: 08:37:22
(UTC+00:00)

Daily predictions for brighter satellites

Satellite Brightness Start Highest point End
(mag) Time Altitude Azimuth Time Altitude Azimuth Time Altitude Azimuth
Cosmos 1954 Rocket 4.3 18:58:09 10° NNW 19:03:25 74° WSW 19:08:42 10° SSE
SPOT 3 Rocket 3.7 18:59:03 10° S 19:04:12 79° WSW 19:09:24 10° NNW
STARLINK-1192 3.6 19:00:32 10° WSW 19:04:41 89° SSE 19:08:51 10° ENE
Cosmos 371 Rocket 3.4 19:00:48 10° S 19:05:32 57° ESE 19:10:20 10° NNE
STARLINK-1108 3.7 19:02:52 10° WNW 19:07:02 79° SSW 19:11:10 10° SE
Spot 2 Rocket 4.1 19:04:40 10° SE 19:09:21 41° ENE 19:14:05 10° N
STARLINK-1244 3.7 19:05:30 10° WSW 19:09:39 86° NNW 19:13:49 10° ENE
SL-4 R/B 4.3 19:09:31 10° SE 19:09:40 10° SE 19:09:49 10° ESE
Terra 3.9 19:07:15 10° E 19:09:50 15° ENE 19:12:25 10° NNE
STARLINK-1071 3.7 19:07:51 10° WNW 19:12:00 73° SW 19:16:07 10° SE
Cosmos 2151 Rocket 4.0 19:07:44 10° N 19:12:10 51° ENE 19:16:34 10° SSE
H-2A R/B 4.2 19:09:14 10° SSW 19:13:24 25° W 19:17:41 10° NW
STARLINK-1138 3.8 19:10:30 10° WSW 19:14:39 81° NNW 19:18:48 10° ENE
STARLINK-1110 3.7 19:11:39 10° WNW 19:15:47 69° SW 19:19:53 10° SE
ERBS 4.2 19:13:48 10° W 19:16:51 34° NNW 19:19:55 10° NE
Abrixas rocket 2.1 19:14:04 10° WNW 19:17:01 72° NNE 19:19:57 10° E
CZ-2C R/B 4.2 19:13:25 10° N 19:17:53 66° WNW 19:22:23 10° SSW
STARLINK-1112 4.5 19:15:06 10° NW 19:19:08 47° NNE 19:23:08 10° E
STARLINK-1143 3.9 19:15:28 10° WSW 19:19:36 76° NNW 19:23:46 10° ENE
Resurs 1-3 4.3 19:17:04 10° S 19:21:23 55° W 19:25:42 10° NNW
Cosmos 1634 Rocket 4.3 19:15:37 10° NNW 19:21:56 73° W 19:28:13 10° S
STARLINK-1124 3.8 19:17:50 10° WNW 19:21:57 63° SW 19:25:50 11° SE
STARLINK-1128 4.4 19:20:05 10° NW 19:24:07 49° NNE 19:28:09 10° E
STARLINK-1241 4.0 19:20:30 10° WSW 19:24:38 71° NNW 19:28:46 10° ENE
STARLINK-1122 3.9 19:22:49 10° WNW 19:26:54 58° SW 19:30:37 12° SE
Cosmos 1300 Rocket 3.6 19:22:53 10° N 19:27:21 90° NNE 19:31:47 10° S
STARLINK-1113 4.3 19:25:04 10° NW 19:29:08 51° NNE 19:33:11 10° E
STARLINK-1239 4.1 19:25:29 10° WSW 19:29:35 67° NNW 19:33:44 10° ENE
NOSS 8 (E) 4.1 19:26:20 10° SSW 19:29:37 72° SE 19:32:39 10° NE
STARLINK-1126 4.0 19:27:51 10° WNW 19:31:55 53° SW 19:35:27 13° SE
Aureole 2 Rocket 2.6 19:29:07 10° S 19:32:03 39° ESE 19:34:53 10° NE
NOSS 2-2 (D) 4.0 19:29:27 10° S 19:32:32 27° ESE 19:35:48 10° ENE
Cosmos 1437 Rocket 2.7 19:30:07 10° S 19:33:49 59° E 19:37:37 10° NNE
STARLINK-1119 4.2 19:30:04 10° NW 19:34:09 54° NNE 19:38:13 10° ESE
CENTAUR R/B 4.2 19:27:14 10° NNW 19:34:17 36° NNE 19:42:04 10° E
STARLINK-1240 4.2 19:30:28 10° WSW 19:34:34 63° NNW 19:38:42 10° NE
STARLINK-1082 4.1 19:32:48 10° WNW 19:36:49 49° SW 19:40:10 14° SSE
Cosmos 304 Rocket 3.9 19:32:29 10° S 19:37:07 53° ESE 19:41:48 10° NNE
Lacrosse 5 2.6 19:33:43 10° WNW 19:38:31 45° SW 19:42:55 12° SSE
STARLINK-1114 4.1 19:35:02 10° NW 19:39:07 57° NNE 19:43:11 10° ESE
STARLINK-1203 4.3 19:35:05 10° WSW 19:39:15 60° NNW 19:43:24 10° NE
STARLINK-1216 4.3 19:35:28 10° WSW 19:39:34 59° NNW 19:43:40 10° NE
STARLINK-1100 4.2 19:37:47 10° WNW 19:41:46 45° SW 19:44:56 15° SSE
ISS -2.5 19:38:47 10° WNW 19:41:48 30° SW 19:44:06 14° SSE
CZ-2C R/B 3.8 19:37:30 10° N 19:42:53 48° WNW 19:48:15 10° SW
STARLINK-1130 (DARKSAT) 4.0 19:40:01 10° NW 19:44:07 60° NNE 19:47:59 11° ESE
STARLINK-1237 4.4 19:40:28 10° WSW 19:44:33 56° NNW 19:48:39 10° NE
STARLINK-1083 4.4 19:42:49 10° WNW 19:46:44 42° SW 19:49:44 16° SSE
Cosmos 1674 Rocket 3.5 19:42:57 10° S 19:47:17 72° E 19:51:42 10° NNE
Meteor 2-4 Rocket 4.5 19:42:22 10° SSW 19:47:34 51° WNW 19:52:49 10° N
STARLINK-1084 3.9 19:44:59 10° WNW 19:49:07 64° NNE 19:52:46 13° ESE
STARLINK-1202 4.5 19:45:30 10° W 19:49:33 53° NNW 19:53:38 10° NE
NOSS 2-2 (E) 3.2 19:46:14 10° SSW 19:49:42 53° ESE 19:53:34 10° NE
Cosmos 1378 Rocket 3.7 19:45:54 10° S 19:50:14 59° E 19:54:33 10° NNE
EXPRESS MD2 3.2 19:48:06 10° SW 19:51:06 69° SSE 19:56:44 10° ENE
STARLINK-1125 4.5 19:47:50 10° WNW 19:51:42 38° SW 19:54:31 16° SSE
Cosmos 1833 Rocket 4.1 19:49:01 10° NW 19:53:58 33° WSW 19:58:54 10° SSW
STARLINK-1098 3.8 19:49:57 10° WNW 19:54:06 68° NNE 19:57:33 14° ESE
Cosmos 2297 3.7 19:48:45 10° SSW 19:54:23 72° ESE 20:00:06 10° NNE
Cosmos 1943 Rocket 2.9 19:50:21 12° SSE 19:54:51 33° ESE 19:59:49 10° NE
Cosmos 1766 4.3 19:51:26 10° N 19:55:04 33° ENE 19:57:24 18° SE
IGS 5A 3.5 19:55:29 14° S 19:59:00 83° WSW 20:03:12 10° NNW
STARLINK-1123 3.7 19:54:55 10° WNW 19:59:05 73° NNE 20:02:19 16° ESE
Cosmos 2082 Rocket 3.0 19:55:19 10° NW 20:00:47 47° WSW 20:06:02 11° S
Cosmos 1452 Rocket 4.4 19:55:58 10° SW 20:01:07 52° WNW 20:06:18 10° NNE
Cosmos 332 Rocket 4.4 19:56:29 10° SSW 20:01:21 61° WNW 20:06:13 10° NNE
BREEZE-M DEB 2.7 19:59:36 10° SW 20:01:50 43° SE 20:06:25 10° ENE
Landsat 7 3.9 19:57:48 13° S 20:01:59 80° WSW 20:06:46 10° NNW
STARLINK-1097 3.7 19:59:56 10° WNW 20:04:05 77° NNE 20:07:07 18° ESE
SeaSat 1 4.5 20:03:58 10° E 20:04:38 10° E 20:04:48 10° ESE
Meteor 1-23 Rocket 4.2 19:59:50 10° S 20:05:31 82° E 20:11:11 10° NNE
Cosmos 1461 3.5 20:03:58 10° SW 20:08:05 62° NW 20:12:26 10° NNE
STARLINK-1099 3.6 20:04:54 10° WNW 20:09:04 82° NNE 20:11:54 20° ESE
Cosmos 1975 Rocket 3.9 20:07:29 20° SE 20:09:45 33° E 20:13:43 10° NNE
Cosmos 2369 Rocket 3.0 20:07:22 18° SSE 20:10:46 32° ESE 20:15:45 10° NE
SAR-Lupe-2 3.9 20:07:37 10° N 20:11:13 66° WNW 20:14:46 10° SSW
CZ-4B DEB 4.4 20:11:56 22° S 20:13:57 78° WSW 20:17:18 10° NNW
STARLINK-1104 3.6 20:09:52 10° WNW 20:14:02 88° NNE 20:16:40 22° ESE
NOSS 2-2 (C) 3.0 20:10:44 10° SSW 20:14:15 76° SE 20:18:12 10° NE
ATLAS 2AS CENTAUR R/B 3.8 20:13:12 17° SSE 20:17:57 30° ESE 20:24:36 10° NE
SPOT 5 3.1 20:14:18 20° SSE 20:18:01 77° ENE 20:23:24 10° N
STARLINK-1144 3.5 20:14:51 10° WNW 20:19:01 87° SSW 20:21:27 24° SE
Cosmos 2026 Rocket 4.5 20:15:52 19° SSE 20:19:59 45° E 20:25:59 10° NNE
NOSS 3-2 (A) 4.2 20:13:54 10° NW 20:21:23 75° NE 20:27:48 19° SE
ATLAS CENTAUR R/B 3.7 20:23:28 10° E 20:23:28 10° E 20:23:36 10° E
Meteor 1-22 Rocket 4.4 20:17:15 10° N 20:23:08 65° ENE 20:26:47 23° SSE
ERS-1 Rocket 3.0 20:19:40 20° SSE 20:23:15 84° WSW 20:28:20 10° NNW
STARLINK-1103 3.5 20:19:49 10° WNW 20:23:59 81° SSW 20:26:13 26° SE
Okean 2 3.5 20:25:56 26° SSE 20:28:04 56° E 20:32:09 10° NNE
Cosmos 1066 Rocket 4.4 20:23:20 10° SSW 20:28:41 67° WNW 20:34:02 10° N
STARLINK-1101 3.6 20:24:48 10° WNW 20:28:58 76° SSW 20:31:00 29° SE
USA 238 DEB 3.9 20:26:01 10° NW 20:33:15 83° NE 20:38:26 22° SE
USA 238 3.9 20:26:07 10° NW 20:33:21 83° NE 20:38:33 22° SE
Cosmos 1953 4.5 20:31:23 10° NE 20:33:32 14° ENE 20:35:00 12° E
Resurs 01 Rocket 4.1 20:30:57 10° SW 20:33:40 16° W 20:36:24 10° NW
STARLINK-1102 3.6 20:29:48 10° WNW 20:33:56 70° SW 20:35:48 31° SE
Cosmos 968 Rocket 4.3 20:29:48 10° N 20:34:38 39° ENE 20:37:31 21° ESE
Okean 1 Rocket 3.8 20:30:26 10° NNW 20:34:45 49° W 20:37:54 17° SSW
Nadezhda 4 Rocket 4.2 20:28:57 10° SSW 20:35:03 69° W 20:41:11 10° N
Cosmos 1805 3.3 20:31:10 10° NNW 20:35:06 75° W 20:37:07 27° S
Cosmos 1470 4.0 20:31:51 10° NNE 20:35:15 28° ENE 20:36:31 23° ESE
STARLINK-1111 3.7 20:34:47 10° WNW 20:38:53 65° SW 20:40:34 33° SE
BREEZE-M DEB (TANK) 4.5 20:32:44 10° SSW 20:39:13 22° SSE 20:39:13 22° SSE
Cosmos 1455 Rocket 3.3 20:36:12 10° N 20:40:29 56° ENE 20:42:18 31° SE
STARLINK-1073 3.7 20:39:47 10° WNW 20:43:52 60° SW 20:45:22 35° SSE
SL-8 R/B 3.8 20:39:21 10° WNW 20:44:05 60° SSW 20:46:17 30° SE
Terra 1.8 20:44:22 27° S 20:46:57 80° WSW 20:51:45 10° NNW
Cosmos 1758 4.3 20:44:38 10° N 20:48:24 35° ENE 20:49:40 28° ESE
SL-4 R/B 2.5 20:43:54 10° SW 20:48:28 48° SE 20:53:08 10° ENE
STARLINK-1121 3.8 20:44:46 10° WNW 20:48:50 55° SW 20:50:08 37° SSE
ATLAS 3B CENTAUR R/B 4.1 20:40:50 10° WSW 20:49:15 22° SSW 20:50:57 20° S
CARTOSAT-1 4.3 20:47:49 21° SSW 20:50:20 45° W 20:54:30 10° NNW
Cosmos 1842 3.1 20:48:52 35° S 20:50:24 76° E 20:54:17 10° NNE
Abrixas rocket 3.4 20:49:46 10° W 20:51:50 25° SW 20:51:50 25° SW
STARLINK-1106 3.9 20:49:47 10° WNW 20:53:49 51° SW 20:54:56 38° S
STARLINK-1234 4.1 20:52:53 10° NW 20:56:02 41° NNE 20:57:44 22° E
STARLINK-1112 4.0 20:54:45 10° WNW 20:58:45 46° SW 20:59:41 39° S
Cosmos 2263 4.3 20:57:25 27° S 21:00:19 57° ESE 21:05:49 10° NNE
STARLINK-1209 3.9 20:58:51 10° NW 21:02:03 46° NNE 21:03:26 27° E
STARLINK-1128 4.1 20:59:45 10° WNW 21:03:41 43° SW 21:04:28 38° S
Cosmos 1733 4.0 21:04:30 10° NNW 21:08:08 44° W 21:09:32 30° SW
STARLINK-1113 4.2 21:04:47 10° WNW 21:08:39 39° SW 21:09:16 37° SSW
Cosmos 1536 Rocket 4.1 21:08:36 36° SE 21:09:31 41° E 21:13:38 10° NNE
Meteor 1-21 4.1 21:07:50 28° S 21:10:55 83° E 21:16:33 10° NNE
COSMOS 2455 3.6 21:09:45 30° SE 21:11:16 34° ESE 21:16:37 10° NE
STARLINK-1119 4.3 21:09:49 10° WNW 21:13:38 36° SW 21:14:04 35° SSW
USA 215 4.1 21:07:24 10° E 21:13:40 50° NNE 21:19:55 10° NW
Cosmos 1354 Rocket 4.4 21:08:37 10° NNW 21:13:50 54° ENE 21:16:12 30° SE
Cosmos 1302 Rocket 4.4 21:10:14 13° SW 21:14:53 62° WNW 21:20:09 10° NNE
Cosmos 1271 Rocket 2.7 21:14:22 51° SSE 21:15:06 65° E 21:19:01 10° NNE
JB-3 4.4 21:10:58 10° NNE 21:15:09 86° WNW 21:16:37 39° SSW
Cosmos 1486 Rocket 4.0 21:10:44 10° NNW 21:16:03 78° WSW 21:18:13 36° S
Spot 4 4.3 21:14:22 33° SE 21:16:15 53° ENE 21:20:58 10° N
Cosmos 1242 Rocket 2.5 21:15:26 49° SSW 21:16:21 81° WNW 21:20:02 10° N
Cosmos 1833 4.3 21:10:57 10° NNW 21:16:36 69° ENE 21:19:13 32° SE
Cosmos 1544 Rocket 3.5 21:12:55 10° N 21:17:17 83° W 21:18:39 43° S
STARLINK-1114 4.5 21:14:49 10° WNW 21:18:34 33° SW 21:18:49 33° SW
STARLINK-60 2.8 21:20:10 68° WSW 21:20:31 86° NNW 21:23:44 10° ENE
Cosmos 1707 2.7 21:24:35 56° SSE 21:25:11 67° E 21:29:04 10° NNE
Cosmos 1417 Rocket 4.5 21:18:54 10° N 21:25:16 84° E 21:28:19 34° SSE
CENTAUR R/B 3.2 21:17:50 10° NW 21:25:56 85° SW 21:31:08 28° SSE
SL-27 R/B 3.4 21:25:43 10° NW 21:29:02 35° WSW 21:29:28 34° WSW
ATLAS 3B R/B 3.1 21:22:24 10° NNW 21:29:05 57° NE 21:33:56 20° ESE
NOSS 3-2 (C) 4.1 21:23:31 10° NW 21:31:05 73° SW 21:35:37 30° SSE
ALOS 2 3.6 21:30:24 29° ESE 21:31:45 36° ENE 21:35:47 10° N
Cosmos 1726 2.5 21:28:49 10° N 21:32:27 48° ENE 21:32:50 45° E
Cosmos 1867 3.6 21:30:23 10° NW 21:35:52 80° NE 21:38:06 37° SE
COSMOS 2487 3.0 21:33:25 10° N 21:36:47 44° ENE 21:37:03 43° E
Cosmos 1992 Rocket 3.9 21:36:07 35° SSW 21:38:22 88° ESE 21:43:37 10° NNE
Cosmos 1943 Rocket 3.3 21:33:15 10° SW 21:38:29 41° NW 21:43:48 10° NNE
NOSS 3-4 (A) 3.3 21:36:31 26° SSW 21:40:01 76° SE 21:46:21 10° NE
NOSS 3-4 (C) 3.3 21:36:40 27° SSW 21:40:07 75° SE 21:46:27 10° NE
SeaSat 1 2.3 21:37:56 10° NNE 21:42:53 74° ESE 21:44:34 41° SSW
EO 1 Del DPAF 3.2 21:40:03 10° N 21:43:50 77° WNW 21:44:29 58° SW
Cosmos 2315 Rocket 4.4 21:43:26 10° N 21:49:31 53° ENE 21:52:08 32° SE
STARLINK-29 4.2 21:51:41 33° ENE 21:51:41 33° ENE 21:53:37 10° ENE
STARLINK-1212 3.3 21:48:09 10° WNW 21:50:47 59° NW 21:50:47 59° NW
STARLINK-1105 3.4 21:48:37 10° WNW 21:51:13 57° NW 21:51:13 57° NW
Meteor 2-10 3.9 21:47:10 10° NNW 21:52:13 81° W 21:53:43 46° S
STARLINK-1247 3.4 21:49:29 10° WNW 21:52:07 58° NW 21:52:07 58° NW
BREEZE-M DEB (TANK) 3.5 21:42:21 10° W 21:53:05 66° NNW 21:56:19 10° ENE
STARLINK-1227 3.4 21:49:59 10° WNW 21:52:32 55° NW 21:52:32 55° NW
RESURS DK-1 3.5 21:53:56 29° E 21:53:56 29° E 21:57:06 10° NE
STARLINK-1226 3.4 21:50:50 10° WNW 21:53:24 55° NW 21:53:24 55° NW
BREEZE-M DEB (TANK) 3.2 21:50:31 10° WNW 21:54:03 69° NNE 21:58:35 10° E
Cosmos 2369 Rocket 3.2 21:49:15 10° SW 21:54:39 43° NW 22:00:02 10° NNE
STARLINK-1215 3.5 21:51:44 10° WNW 21:54:16 54° NW 21:54:16 54° NW
S3M 4.0 21:49:24 10° NNW 21:55:34 74° W 21:58:11 37° S
Cosmos 2227 Rocket 4.4 21:51:49 10° N 21:55:56 20° NE 22:00:01 10° E
STARLINK-1217 3.5 21:53:33 10° WNW 21:56:00 51° NW 21:56:00 51° NW
STARLINK-1229 3.6 21:54:28 10° WNW 21:56:54 50° NW 21:56:54 50° NW
STARLINK-1270 3.6 21:55:21 10° WNW 21:57:45 49° NW 21:57:45 49° NW
STARLINK-1189 3.7 21:57:09 10° WNW 21:59:28 46° WNW 21:59:28 46° WNW
ATLAS CENTAUR R/B 1.3 21:59:35 53° SW 22:00:34 90° W 22:04:43 10° NE
STARLINK-1188 3.7 21:58:04 10° WNW 22:00:22 45° WNW 22:00:22 45° WNW
Cosmos 1626 4.1 22:01:28 18° E 22:01:28 18° E 22:03:54 10° NE
Cosmos 1340 Rocket 2.7 21:57:57 10° NNW 22:02:02 81° W 22:02:31 67° SSW
STARLINK-1187 4.0 21:59:10 10° WNW 22:01:14 38° WNW 22:01:14 38° WNW
STARLINK-1197 4.4 21:59:00 10° NW 22:03:03 49° NNE 22:05:46 19° E
Exosat Rocket 4.5 21:53:34 10° NNW 22:03:07 88° WSW 22:06:20 36° SSE
STARLINK-1191 3.9 22:00:30 10° WNW 22:02:39 41° WNW 22:02:39 41° WNW
Aureole 3 3.1 22:00:40 10° N 22:03:24 58° NNE 22:03:24 58° NNE
Cosmos 1025 Rocket 3.8 22:02:58 33° WSW 22:04:19 44° WNW 22:08:28 10° N
STARLINK-1221 3.9 22:01:27 10° WNW 22:03:34 40° WNW 22:03:34 40° WNW
Thor Agena Rocket 4.1 21:59:23 10° N 22:04:34 56° WNW 22:07:12 28° SW
STARLINK-1222 4.0 22:02:18 10° WNW 22:04:23 38° WNW 22:04:23 38° WNW
Meteor 2-19 Rocket 4.4 22:03:37 38° S 22:06:10 88° W 22:12:19 10° N
STARLINK-1214 4.0 22:03:13 10° WNW 22:05:16 38° WNW 22:05:16 38° WNW
Cosmos 1908 3.4 22:03:21 10° N 22:07:07 56° ENE 22:07:21 55° E
Nimbus 7 Rocket 4.4 22:01:34 10° NNE 22:07:41 81° ESE 22:10:05 39° S
STARLINK-1198 4.3 22:03:59 10° NW 22:08:02 52° NNE 22:10:32 21° E
Cosmos 1656 Rocket 4.0 22:04:50 25° SW 22:08:07 63° WNW 22:13:41 10° NNE
ATLAS 2AS CENTAUR R/B 3.2 22:00:30 11° SW 22:08:23 76° NW 22:16:21 10° NE
BREEZE M DEB (TANK) 3.8 22:07:03 10° WNW 22:08:32 25° NW 22:08:32 25° NW
Cosmos 1953 2.6 22:06:23 10° NNW 22:10:17 52° W 22:10:41 49° WSW
Cosmos 1470 4.5 22:08:08 10° NW 22:11:10 22° W 22:11:51 21° WSW
BREEZE-M DEB (TANK) 3.6 22:02:04 10° WNW 22:11:24 51° SW 22:11:56 48° SSW
STARLINK-1228 4.1 22:08:43 10° WNW 22:11:08 38° W 22:11:08 38° W
STARLINK-1199 4.2 22:08:58 10° NW 22:13:04 55° NNE 22:15:20 24° E
Cosmos 2292 Rocket 3.0 22:13:24 72° W 22:13:29 72° W 22:16:43 10° N
FALCON 9 R/B 4.2 22:19:35 20° SE 22:19:35 20° SE 22:24:12 10° ESE
KORONAS-FOTON 3.7 22:17:21 71° ESE 22:17:25 71° E 22:21:16 10° NNE
STARLINK-1210 4.1 22:13:56 10° NW 22:18:03 58° NNE 22:20:06 27° E
Cosmos 1655 Rocket 4.4 22:15:02 29° SW 22:18:10 56° WNW 22:24:20 10° N
SL-4 R/B 3.7 22:20:18 15° NNW 22:20:18 15° NNW 22:20:51 10° NNW
Cosmos 1777 Rocket 4.0 22:16:23 10° NNW 22:21:39 75° ENE 22:23:18 44° SE
STARLINK-1219 4.0 22:18:54 10° NW 22:23:02 61° NNE 22:24:52 30° E
ATLAS 5 CENTAUR R/B 2.3 22:21:46 27° W 22:23:05 42° NW 22:25:15 10° NNE
EO 1 Delta rocket 4.5 22:18:01 10° NNE 22:23:27 48° E 22:24:37 40° SE
Cosmos 1892 Rocket 3.9 22:25:06 48° ESE 22:25:36 51° E 22:29:51 10° NNE
STARLINK-52 3.6 22:26:27 55° N 22:26:27 55° N 22:29:26 10° NE
STARLINK-1211 3.9 22:23:54 10° WNW 22:28:02 65° NNE 22:29:40 34° E
Cosmos 2228 2.8 22:23:50 10° N 22:28:06 89° E 22:28:36 69° S
SL-4 R/B 2.9 22:23:27 10° W 22:28:14 59° NNW 22:33:01 10° ENE
Cosmos 1726 Rocket 3.5 22:24:33 10° N 22:28:53 74° E 22:29:30 62° SE
STARLINK-1338 4.5 22:32:46 34° E 22:32:46 34° E 22:35:09 10° ENE
Cosmos 921 Rocket 3.5 22:31:52 44° ESE 22:32:04 45° ESE 22:36:13 10° NNE
YAOGAN 11 4.2 22:31:51 52° SE 22:32:41 65° ENE 22:36:59 10° N
STARLINK-1245 3.8 22:28:52 10° WNW 22:33:01 69° NNE 22:34:26 39° E
Cosmos 1300 3.7 22:29:34 10° N 22:33:08 36° ENE 22:33:33 35° E
Meteor 1-24 Rocket 3.9 22:33:05 42° SE 22:34:29 53° E 22:39:48 10° NNE
Cosmos 2266 Rocket 4.4 22:33:43 31° SW 22:36:26 54° WNW 22:42:22 10° N
CZ-4C R/B 3.8 22:36:20 16° ESE 22:36:34 16° ESE 22:39:49 10° ENE
STARLINK-1233 3.7 22:33:49 10° WNW 22:37:58 74° NNE 22:39:11 44° ESE
STARLINK-1371 4.2 22:39:09 40° E 22:39:09 40° E 22:41:46 10° ENE
Cosmos 1437 4.5 22:40:11 24° ENE 22:40:11 24° ENE 22:41:59 10° NNE
STARLINK-1341 4.0 22:42:21 44° E 22:42:21 44° E 22:45:07 10° ENE
Cosmos 220 Rocket 4.4 22:41:33 48° ESE 22:41:52 49° ESE 22:46:10 10° NNE
STARLINK-1204 3.6 22:38:48 10° WNW 22:42:58 79° NNE 22:43:59 50° ESE
STARLINK-1339 4.1 22:45:38 40° E 22:45:38 40° E 22:48:07 10° ENE
STARLINK-1374 3.9 22:45:33 48° E 22:45:33 48° E 22:48:27 10° ENE
SJ 16-02 3.2 22:41:01 10° N 22:44:45 26° ENE 22:47:12 16° ESE
STARLINK-1238 3.6 22:43:48 10° WNW 22:47:58 84° NNE 22:48:47 56° ESE
Cosmos 1674 3.3 22:48:20 42° W 22:48:37 43° WNW 22:52:15 10° N
Helios 1B rocket 3.1 22:45:56 10° NNE 22:49:52 40° E 22:50:09 40° ESE
STARLINK-1377 3.6 22:52:00 59° E 22:52:00 59° E 22:55:13 10° ENE
STARLINK-1201 3.5 22:48:47 10° WNW 22:52:56 89° NNE 22:53:33 64° ESE
Cosmos 1244 Rocket 4.4 22:51:03 42° S 22:53:20 84° E 22:59:32 10° N
STARLINK-1353 3.5 22:55:17 66° E 22:55:17 66° E 22:58:37 10° ENE
USA 215 3.2 22:52:57 29° SE 22:56:30 71° SW 23:03:04 10° NW
COSMOS 2455 3.6 22:52:50 19° WSW 22:57:02 48° NW 23:02:53 10° NNE
CZ-2D R/B 4.4 22:55:26 10° ENE 22:57:24 12° E 22:59:22 10° ESE
Cosmos 1745 Rocket 4.5 22:55:32 32° SE 22:57:55 48° E 23:03:46 10° NNE
STARLINK-1206 3.5 22:53:46 10° WNW 22:57:56 85° SSW 22:58:21 71° SE
STARLINK-1375 3.4 22:58:33 73° E 22:58:33 73° E 23:02:02 10° ENE
Cosmos 2219 3.4 22:53:54 10° NNW 22:59:34 66° ENE 23:02:17 31° SE
STARLINK-1352 3.4 23:01:56 68° ENE 23:01:56 68° ENE 23:05:10 10° ENE
STARLINK-1350 3.3 23:01:49 81° E 23:01:49 81° E 23:05:27 10° ENE
Helios 1A 3.4 23:01:35 46° WSW 23:01:51 47° W 23:05:55 10° NNW
STARLINK-1205 3.4 22:58:44 10° WNW 23:02:53 80° SW 23:03:07 76° S
Cosmos 2297 Rocket 2.6 22:58:14 10° NNW 23:03:50 59° ENE 23:07:00 26° SE
PSLV R/B 3.7 23:02:42 10° NNE 23:07:11 64° ESE 23:07:54 54° SSE
Lacrosse 4 Rocket 3.6 23:03:53 10° N 23:07:26 24° NE 23:10:55 10° E
STARLINK-1218 3.4 23:03:44 10° WNW 23:07:53 74° SSW 23:07:55 74° SSW
ALOS 2 4.0 23:07:47 24° WSW 23:08:10 24° W 23:11:46 10° NW
STARLINK-1368 3.3 23:08:27 82° WNW 23:08:34 85° NNW 23:12:22 10° ENE
Timation 2 Rocket 4.1 23:05:01 10° NW 23:11:08 55° WSW 23:12:55 41° SSW
Cosmos 2058 Rocket 3.2 23:06:56 10° NNW 23:11:21 62° W 23:11:58 55° SW
Cosmos 1455 4.2 23:08:37 10° NNE 23:11:32 21° ENE 23:12:54 17° ESE
STARLINK-1369 3.3 23:11:47 74° W 23:12:02 81° NNW 23:15:51 10° ENE
Cosmos 1626 Rocket 3.8 23:11:50 48° SE 23:12:33 55° E 23:16:48 10° NNE
STARLINK-1254 3.5 23:08:43 10° WNW 23:12:41 67° SW 23:12:41 67° SW
Meteor 1-29 3.7 23:10:48 10° NNE 23:13:48 41° E 23:13:48 41° E
Cosmos 1898 Rocket 4.4 23:09:08 10° N 23:14:16 45° ENE 23:17:36 20° SE
STARLINK-1372 3.4 23:15:07 66° W 23:15:31 77° NNW 23:19:20 10° ENE
CENTAUR R/B 4.4 23:09:44 10° WNW 23:15:57 24° WSW 23:18:17 21° SW
Meteor 2-5 Rocket 4.1 23:14:12 35° SW 23:16:14 53° WNW 23:21:46 10° N
STARLINK-1231 3.6 23:13:42 10° WNW 23:17:27 60° WSW 23:17:27 60° WSW
STARLINK-1378 3.5 23:18:28 60° W 23:19:02 73° NNW 23:22:50 10° ENE
SL-14 R/B 3.4 23:19:11 54° W 23:19:28 55° WNW 23:23:16 10° N
ATLAS 3B R/B 3.4 23:13:25 10° NW 23:19:33 36° WSW 23:21:10 32° SW
Cosmos 192 4.5 23:18:27 48° SSE 23:19:35 63° ESE 23:24:31 10° NNE
SL-08 R/B 4.5 23:17:56 40° S 23:20:28 86° W 23:26:52 10° N
FALCON 9 DEB 4.5 23:20:07 23° WNW 23:21:47 38° NNW 23:25:04 10° NE
STARLINK-1379 3.5 23:21:51 54° W 23:22:33 70° NNW 23:26:21 10° ENE
STARLINK-1232 3.8 23:18:42 10° WNW 23:22:14 53° WSW 23:22:14 53° WSW
STARLINK-1329 3.6 23:23:15 52° W 23:24:00 68° NNW 23:27:49 10° ENE
SL-16 R/B 3.8 23:19:26 10° SE 23:24:56 35° ENE 23:30:28 10° N
STARLINK-1224 4.4 23:20:57 10° NW 23:25:00 51° NNE 23:29:03 10° E
STARLINK-1362 3.7 23:26:40 46° W 23:27:35 65° NNW 23:31:23 10° NE
STARLINK-1208 4.0 23:23:41 10° WNW 23:27:00 46° WSW 23:27:00 46° WSW
Cosmos 1656 3.8 23:27:53 42° S 23:29:43 66° ESE 23:35:17 10° NNE
ATLAS CENTAUR R/B 1.7 23:27:15 10° NW 23:29:43 69° NE 23:34:53 10° SE
STARLINK-1225 4.3 23:25:57 10° NW 23:30:02 54° NNE 23:34:05 10° ESE
STARLINK-1373 3.8 23:30:05 41° W 23:31:10 62° NNW 23:34:58 10° NE
RESURS DK-1 3.9 23:29:48 22° W 23:31:28 30° NW 23:35:08 10° N
Cosmos 1386 Rocket 4.4 23:29:51 38° S 23:32:21 81° E 23:38:35 10° N
STARLINK-1365 3.8 23:31:12 38° W 23:32:26 60° NNW 23:36:14 10° NE
STARLINK-1271 4.2 23:28:42 10° WNW 23:31:49 41° W 23:31:49 41° W
Cosmos 1697 Rocket 3.4 23:32:47 31° SSE 23:34:41 41° ESE 23:39:58 10° NE
STARLINK-1390 3.8 23:33:35 38° W 23:34:48 59° NNW 23:38:35 10° NE
STARLINK-1230 4.2 23:30:54 10° NW 23:35:00 57° NNE 23:39:05 10° ESE
Cosmos 1626 3.2 23:36:01 32° W 23:36:21 32° WNW 23:39:44 10° N
Cosmos 1812 Rocket 3.6 23:33:10 10° N 23:37:39 74° E 23:38:55 46° SSE
STARLINK-1154 4.4 23:33:42 10° WNW 23:36:35 36° W 23:36:35 36° W
BREEZE-M R/B 3.1 23:31:45 12° WSW 23:37:56 88° NNW 23:41:22 10° ENE
SL-19 R/B 4.5 23:33:26 10° NNE 23:38:57 64° ESE 23:41:19 36° S
ATLAS CENTAUR R/B 4.0 23:37:15 10° WNW 23:40:00 16° NW 23:42:40 10° N
STARLINK-1243 4.1 23:35:54 10° NW 23:40:00 60° NNE 23:44:07 10° ESE
Cosmos 990 Rocket 4.1 23:35:17 10° NNW 23:40:35 76° ENE 23:43:10 31° SSE
Cosmos 2227 Rocket 2.1 23:35:03 10° NNW 23:40:46 86° WSW 23:43:30 32° SSE
CZ-4 R/B 4.2 23:37:43 10° N 23:42:22 54° WNW 23:43:50 38° SW
USA 81 4.3 23:42:28 34° SSE 23:44:37 60° E 23:49:50 10° NNE
STARLINK-1236 4.0 23:40:52 10° NW 23:44:59 64° NNE 23:49:06 10° ESE
Cosmos 1709 Rocket 4.2 23:44:10 31° SSE 23:47:06 64° E 23:53:11 10° NNE
Cosmos 1602 Rocket 3.4 23:47:23 54° SSW 23:48:20 80° W 23:52:41 10° N
Alouette 2 Rocket 4.2 23:43:26 10° N 23:48:50 56° ENE 23:50:42 29° SE
SL-08 ROCKET BODY 4.3 23:46:46 38° SSW 23:49:08 73° W 23:54:59 10° N
STARLINK-1269 3.8 23:50:49 10° WNW 23:54:59 72° NNE 23:59:07 10° ESE
